Regional Weather Roundup
Issued by NWS

Home | Current Version | Previous Version | Graphics & Text | Print | Product List | Glossary On
Versions: 1 2 3 4 5 6 7 8 9 10 11 12 13 14 15 16 17 18 19 20 21 22 23 24 25 26 27 28 29 30 31 32 33 34 35 36 37 38 39 40 41 42 43 44 45 46 47 48 49 50
000
ASUS43 KTOP 300508
RWRKS

WEATHER ROUNDUP FOR KANSAS
NATIONAL WEATHER SERVICE GOODLAND KS
1200 AM CDT WED JUL 30 2014

NOTE:  "FAIR" INDICATES FEW OR NO CLOUDS BELOW 12,000 FEET WITH NO
SIGNIFICANT WEATHER AND/OR OBSTRUCTIONS TO VISIBILITY.

KSZ001>006-013>018-027>032-041>047-300600-
NORTHWEST KANSAS

CITY           SKY/WX    TMP DP  RH WIND       PRES   REMARKS
GOODLAND       TSTM      66  65  96 SW9       30.17S
HAYS           CLOUDY    73  55  53 E10       30.12S
HILL CITY      CLOUDY    73  56  54 E13       30.13S
RUSSELL        CLOUDY    71  59  65 E8        30.11S
$$

KSZ061>065-074>080-084>089-300600-
SOUTHWEST KANSAS

CITY           SKY/WX    TMP DP  RH WIND       PRES   REMARKS
DODGE CITY     CLOUDY    69  58  67 S7        30.11F
ELKHART          N/A     67  62  84 SE14        N/A
GARDEN CITY    LGT RAIN  68  63  84 SE8       30.11F
GREAT BEND     CLOUDY    73  61  64 E8        30.10S
LIBERAL        CLOUDY    68  61  77 SE8       30.13S
PRATT          CLOUDY    68  61  77 SW5       30.12S
$$

KSZ066>073-081>083-090>101-300600-
SOUTHEAST KANSAS

CITY           SKY/WX    TMP DP  RH WIND       PRES   REMARKS
CHANUTE        MOCLDY    65  61  87 CALM      30.10S
COFFEYVILLE    PTCLDY    70  63  78 S3        30.09S
HUTCHINSON     CLOUDY    73  60  63 E9        30.10S
MEDICINE LODGE   N/A     71  63  75 S5        30.10R
NEWTON         CLOUDY    72  54  53 SE6       30.14S
PARSONS        CLOUDY    69  63  81 CALM      30.11R
WICHITA INTL   CLOUDY    73  62  68 E9        30.09S
WICHITA JABRA  CLOUDY    69  59  70 E3        30.11S
WICHITA MCCONL CLOUDY    72  62  70 E9        30.11S
WINFIELD       MOCLDY    75  64  68 E7        30.11S
$$

KSZ007>012-019>026-033>040-048>060-102>105-300600-
NORTHEAST KANSAS

CITY           SKY/WX    TMP DP  RH WIND       PRES   REMARKS
CONCORDIA      CLOUDY    69  59  70 E5        30.13S
EMPORIA        MOCLDY    65  60  84 E5        30.11S
LAWRENCE       CLOUDY    68  62  81 NW3       30.11S
MANHATTAN      CLOUDY    72  59  63 NE6       30.11S
MARYSVILLE     PTCLDY    64  55  72 E3        30.13S
OLATHE IND     MOCLDY    72  58  61 CALM      30.12S
OLATHE EXE     MOCLDY    71  58  63 NE3       30.11S
SALINA         CLOUDY    75  58  55 E6        30.11S
TOPEKA BILLARD MOCLDY    72  62  71 CALM      30.11S
TOPEKA FORBES  CLOUDY    71  59  65 CALM      30.12R
$$


USA.gov is the U.S. government's official web portal to all federal, state and local government web resources and services.